Regional Weather Roundup
Issued by NWS

Home | Current Version | Previous Version | Graphics & Text | Print | Product List | Glossary On
Versions: 1 2 3 4 5 6 7 8 9 10 11 12 13 14 15 16 17 18 19 20 21 22 23 24 25 26 27 28 29 30 31 32 33 34 35 36 37 38 39 40 41 42 43 44 45 46 47 48 49 50
874
ASUS43 KTOP 151208
RWRKS

WEATHER ROUNDUP FOR KANSAS
NATIONAL WEATHER SERVICE GOODLAND KS
600 AM CST FRI DEC 15 2017

NOTE:  "FAIR" INDICATES FEW OR NO CLOUDS BELOW 12,000 FEET WITH NO
SIGNIFICANT WEATHER AND/OR OBSTRUCTIONS TO VISIBILITY.

KSZ001>006-013>018-027>032-041>047-151300-
NORTHWEST KANSAS

CITY           SKY/WX    TMP DP  RH WIND       PRES   REMARKS
GOODLAND       CLOUDY    21  15  78 SW13      30.09F WCI   9
6HR MIN TEMP:  18; 6HR MAX TEMP:  21;

HAYS           CLEAR     21  18  88 W5        30.19F
HILL CITY      CLOUDY    19  16  88 W8        30.16F
6HR MIN TEMP:  19; 6HR MAX TEMP:  28;

RUSSELL        CLEAR     17  16  95 SW7       30.17F
6HR MIN TEMP:  17; 6HR MAX TEMP:  30;

$$

KSZ061>065-074>080-084>089-151300-
SOUTHWEST KANSAS

CITY           SKY/WX    TMP DP  RH WIND       PRES   REMARKS
DODGE CITY     CLOUDY    18  13  80 W7        30.21S
6HR MIN TEMP:  18; 6HR MAX TEMP:  26;

ELKHART        CLOUDY    28  25  89 W14       30.21F WCI  16
GARDEN CITY    CLOUDY    14  11  87 W10       30.20F WCI   1
6HR MIN TEMP:  12; 6HR MAX TEMP:  25;

GREAT BEND     CLEAR     19  17  92 SW6       30.21S
LIBERAL        CLEAR     20  16  84 W10       30.23F WCI   9
PRATT          CLEAR     20  16  85 W8        30.22F
6HR MIN TEMP:  20; 6HR MAX TEMP:  32;

$$

KSZ066>073-081>083-090>101-151300-
SOUTHEAST KANSAS

CITY           SKY/WX    TMP DP  RH WIND       PRES   REMARKS
CHANUTE        PTCLDY    33  31  92 NW8       30.18S
6HR MIN TEMP:  33; 6HR MAX TEMP:  40;

COFFEYVILLE    CLEAR     34  30  85 W6        30.21R
6HR MIN TEMP:  34; 6HR MAX TEMP:  42;

HUTCHINSON     CLEAR     22  21  96 NW7       30.21F
6HR MIN TEMP:  21; 6HR MAX TEMP:  34;

MEDICINE LODGE   N/A     23  21  92 W5        30.23F
NEWTON         CLEAR     26  24  92 W7        30.21R
PARSONS        CLEAR     29  28  96 CALM      30.20R
6HR MIN TEMP:  27; 6HR MAX TEMP:  40;

WICHITA INTL   PTCLDY    30  27  88 NW9       30.22S
6HR MIN TEMP:  30; 6HR MAX TEMP:  39;

WICHITA JABRA  CLEAR     29  27  92 W8        30.21S
6HR MIN TEMP:  29; 6HR MAX TEMP:  38;

WICHITA MCCONL CLEAR     30  26  85 NW7       30.21S
WINFIELD       CLEAR     27  26  96 W8        30.24R
6HR MIN TEMP:  27; 6HR MAX TEMP:  38;

$$

KSZ007>012-019>026-033>040-048>060-102>105-151300-
NORTHEAST KANSAS

CITY           SKY/WX    TMP DP  RH WIND       PRES   REMARKS
CONCORDIA      CLEAR     25  22  88 SW9       30.16F
6HR MIN TEMP:  24; 6HR MAX TEMP:  34;

EMPORIA        CLEAR     29  27  92 W6        30.18S
6HR MIN TEMP:  29; 6HR MAX TEMP:  38;

LAWRENCE       PTCLDY    32  29  88 W6        30.16R
6HR MIN TEMP:  30; 6HR MAX TEMP:  38;

MANHATTAN      PTCLDY    30  26  85 W6        30.18S
6HR MIN TEMP:  30; 6HR MAX TEMP:  39;

MARYSVILLE     PTCLDY    30  28  93 W6        30.14S
OLATHE IND     PTCLDY    33  30  88 W7        30.15S
6HR MIN TEMP:  33; 6HR MAX TEMP:  37;

OLATHE EXE     PTCLDY    33  31  92 NW7       30.14R
6HR MIN TEMP:  33; 6HR MAX TEMP:  36;

SALINA         CLEAR     28  25  88 W8        30.21S
6HR MIN TEMP:  28; 6HR MAX TEMP:  40;

TOPEKA BILLARD MOCLDY    32  30  92 W6        30.17R
6HR MIN TEMP:  32; 6HR MAX TEMP:  38;

TOPEKA FORBES  MOCLDY    32  29  88 NW8       30.16R
6HR MIN TEMP:  32; 6HR MAX TEMP:  38;

$$




USA.gov is the U.S. government's official web portal to all federal, state and local government web resources and services.